| time (UTC) | temp F | wind direction | speed MPH | gust MPH | rain 1hr in | rain 24hr in | rain mn in | humidity % | barometer mb |
| 20260505001516 | 78 | 0 | 8.0 | 13.0 | 0.00 | 0.00 | 0.00 | 63 | 1003.8 |
| 20260505000516 | 78 | 0 | 7.0 | 11.0 | 0.00 | 0.00 | 0.00 | 62 | 1003.8 |
| 20260504235516 | 79 | 0 | 8.0 | 12.0 | 0.00 | 0.00 | 0.00 | 61 | 1003.8 |
| 20260504234516 | 79 | 0 | 11.0 | 14.0 | 0.00 | 0.00 | 0.00 | 61 | 1003.9 |
| 20260504233516 | 79 | 0 | 13.0 | 19.0 | 0.00 | 0.00 | 0.00 | 60 | 1004.1 |
| 20260504232516 | 79 | 0 | 15.0 | 24.0 | 0.00 | 0.00 | 0.00 | 60 | 1004.2 |
| 20260504231516 | 79 | 0 | 14.0 | 21.0 | 0.00 | 0.00 | 0.00 | 60 | 1004.3 |
| 20260504230516 | 80 | 0 | 12.0 | 16.0 | 0.00 | 0.00 | 0.00 | 59 | 1004.4 |
| 20260504225516 | 80 | 0 | 12.0 | 19.0 | 0.00 | 0.00 | 0.00 | 58 | 1004.6 |
| 20260504224516 | 81 | 0 | 12.0 | 20.0 | 0.00 | 0.00 | 0.00 | 57 | 1004.8 |
| 20260504223516 | 81 | 0 | 11.0 | 18.0 | 0.00 | 0.00 | 0.00 | 57 | 1004.5 |
| 20260504222516 | 80 | 0 | 15.0 | 25.0 | 0.00 | 0.00 | 0.00 | 56 | 1004.8 |
| 20260504221516 | 81 | 0 | 12.0 | 23.0 | 0.00 | 0.00 | 0.00 | 55 | 1004.8 |
| 20260504220516 | 81 | 0 | 14.0 | 24.0 | 0.00 | 0.00 | 0.00 | 55 | 1004.8 |
| 20260504215516 | 81 | 0 | 12.0 | 16.0 | 0.00 | 0.00 | 0.00 | 55 | 1005.0 |
| 20260504214516 | 81 | 0 | 10.0 | 18.0 | 0.00 | 0.00 | 0.00 | 55 | 1005.1 |
| 20260504213516 | 81 | 0 | 11.0 | 18.0 | 0.00 | 0.00 | 0.00 | 54 | 1005.3 |
| 20260504212516 | 80 | 0 | 10.0 | 25.0 | 0.00 | 0.00 | 0.00 | 55 | 1005.6 |
| 20260504211516 | 81 | 0 | 14.0 | 23.0 | 0.00 | 0.00 | 0.00 | 54 | 1005.8 |
| 20260504210515 | 80 | 0 | 14.0 | 24.0 | 0.00 | 0.00 | 0.00 | 55 | 1005.9 |
| 20260504205516 | 80 | 0 | 11.0 | 16.0 | 0.00 | 0.00 | 0.00 | 54 | 1006.0 |
| 20260504204516 | 80 | 0 | 13.0 | 19.0 | 0.00 | 0.00 | 0.00 | 53 | 1006.1 |
| 20260504203516 | 80 | 0 | 12.0 | 15.0 | 0.00 | 0.00 | 0.00 | 53 | 1006.4 |
| 20260504202516 | 81 | 0 | 12.0 | 21.0 | 0.00 | 0.00 | 0.00 | 52 | 1006.5 |
| 20260504201516 | 80 | 0 | 10.0 | 14.0 | 0.00 | 0.00 | 0.00 | 52 | 1006.8 |
| 20260504200516 | 80 | 0 | 10.0 | 14.0 | 0.00 | 0.00 | 0.00 | 52 | 1006.9 |
| 20260504195516 | 79 | 0 | 7.0 | 11.0 | 0.00 | 0.00 | 0.00 | 53 | 1007.1 |
| 20260504194516 | 79 | 0 | 12.0 | 20.0 | 0.00 | 0.00 | 0.00 | 52 | 1007.3 |
| 20260504193516 | 79 | 0 | 11.0 | 15.0 | 0.00 | 0.00 | 0.00 | 52 | 1007.5 |
| 20260504192515 | 78 | 0 | 10.0 | 15.0 | 0.00 | 0.00 | 0.00 | 52 | 1007.6 |
| 20260504191515 | 79 | 0 | 14.0 | 24.0 | 0.00 | 0.00 | 0.00 | 51 | 1007.8 |
| 20260504190515 | 78 | 0 | 11.0 | 13.0 | 0.00 | 0.00 | 0.00 | 51 | 1008.0 |
| 20260504185515 | 78 | 0 | 12.0 | 19.0 | 0.00 | 0.00 | 0.00 | 52 | 1008.2 |
| 20260504184515 | 78 | 0 | 10.0 | 14.0 | 0.00 | 0.00 | 0.00 | 51 | 1008.3 |
| 20260504183515 | 78 | 0 | 10.0 | 14.0 | 0.00 | 0.00 | 0.00 | 52 | 1008.3 |
| 20260504182515 | 78 | 0 | 10.0 | 13.0 | 0.00 | 0.00 | 0.00 | 53 | 1008.5 |
| 20260504181515 | 77 | 0 | 13.0 | 18.0 | 0.00 | 0.00 | 0.00 | 52 | 1008.6 |
| 20260504180515 | 77 | 0 | 9.0 | 14.0 | 0.00 | 0.00 | 0.00 | 54 | 1009.0 |
| 20260504175515 | 76 | 0 | 15.0 | 22.0 | 0.00 | 0.00 | 0.00 | 54 | 1009.1 |
| 20260504174517 | 76 | 0 | 13.0 | 19.0 | 0.00 | 0.00 | 0.00 | 54 | 1009.1 |
| 20260504173515 | 76 | 0 | 9.0 | 13.0 | 0.00 | 0.00 | 0.00 | 55 | 1009.3 |
| 20260504172517 | 76 | 0 | 10.0 | 16.0 | 0.00 | 0.00 | 0.00 | 54 | 1009.4 |
| 20260504171515 | 75 | 0 | 16.0 | 19.0 | 0.00 | 0.00 | 0.00 | 55 | 1009.6 |
| 20260504170538 | 75 | 0 | 13.0 | 20.0 | 0.00 | 0.00 | 0.00 | 56 | 1009.6 |
| 20260504150517 | 70 | 0 | 10.0 | 16.0 | 0.00 | 0.00 | 0.00 | 61 | 1010.7 |
| 20260504140537 | 67 | 0 | 12.0 | 20.0 | 0.00 | 0.00 | 0.00 | 64 | 1010.9 |
| 20260504130516 | 64 | 0 | 8.0 | 23.0 | 0.00 | 0.00 | 0.00 | 70 | 1011.1 |
| 20260504110516 | 63 | 0 | 6.0 | 11.0 | 0.00 | 0.00 | 0.00 | 68 | 1011.0 |
| 20260504100516 | 63 | 0 | 7.0 | 9.0 | 0.00 | 0.00 | 0.00 | 64 | 1011.1 |
| 20260504081516 | 62 | 0 | 3.0 | 6.0 | 0.00 | 0.00 | 0.00 | 67 | 1011.8 |
| 20260504080516 | 62 | 0 | 5.0 | 7.0 | 0.00 | 0.00 | 0.00 | 67 | 1011.9 |
| 20260504050556 | 66 | 0 | 5.0 | 9.0 | 0.00 | 0.00 | 0.00 | 58 | 1013.9 |
| 20260504045517 | 66 | 0 | 4.0 | 7.0 | 0.00 | 0.00 | 0.00 | 57 | 1014.0 |
| 20260504044517 | 66 | 0 | 4.0 | 7.0 | 0.00 | 0.00 | 0.00 | 57 | 1014.1 |
| 20260504043517 | 67 | 0 | 5.0 | 7.0 | 0.00 | 0.00 | 0.00 | 56 | 1014.0 |
| 20260504042517 | 67 | 0 | 6.0 | 7.0 | 0.00 | 0.00 | 0.00 | 55 | 1014.1 |
| 20260504041517 | 67 | 0 | 3.0 | 6.0 | 0.00 | 0.00 | 0.00 | 55 | 1014.1 |
| 20260504040517 | 67 | 0 | 6.0 | 8.0 | 0.00 | 0.00 | 0.00 | 55 | 1014.1 |
| 20260504035517 | 67 | 0 | 7.0 | 10.0 | 0.00 | 0.00 | 0.00 | 54 | 1014.1 |
| 20260504034517 | 68 | 0 | 6.0 | 9.0 | 0.00 | 0.00 | 0.00 | 54 | 1014.3 |
| 20260504033517 | 68 | 0 | 5.0 | 7.0 | 0.00 | 0.00 | 0.00 | 53 | 1014.2 |
| 20260504032517 | 68 | 0 | 5.0 | 8.0 | 0.00 | 0.00 | 0.00 | 53 | 1013.9 |
| 20260504031517 | 69 | 0 | 7.0 | 11.0 | 0.00 | 0.00 | 0.00 | 52 | 1013.8 |
| 20260504030517 | 69 | 0 | 6.0 | 8.0 | 0.00 | 0.00 | 0.00 | 51 | 1013.8 |
| 20260504025517 | 70 | 0 | 4.0 | 6.0 | 0.00 | 0.00 | 0.00 | 50 | 1013.8 |
| 20260504024517 | 70 | 0 | 4.0 | 8.0 | 0.00 | 0.00 | 0.00 | 49 | 1013.9 |
| 20260504023517 | 71 | 0 | 2.0 | 4.0 | 0.00 | 0.00 | 0.00 | 47 | 1013.8 |
| 20260504022517 | 71 | 0 | 5.0 | 8.0 | 0.00 | 0.00 | 0.00 | 47 | 1013.8 |
| 20260504021517 | 72 | 0 | 4.0 | 7.0 | 0.00 | 0.00 | 0.00 | 46 | 1013.7 |
| 20260504020517 | 72 | 0 | 5.0 | 7.0 | 0.00 | 0.00 | 0.00 | 44 | 1013.5 |
| 20260504015537 | 73 | 0 | 2.0 | 4.0 | 0.00 | 0.00 | 0.00 | 43 | 1013.5 |
| 20260504014517 | 74 | 0 | 4.0 | 7.0 | 0.00 | 0.00 | 0.00 | 41 | 1013.5 |
| 20260504013557 | 75 | 0 | 3.0 | 5.0 | 0.00 | 0.00 | 0.00 | 40 | 1013.5 |
| 20260504012516 | 75 | 0 | 4.0 | 6.0 | 0.00 | 0.00 | 0.00 | 38 | 1013.4 |
| 20260504011517 | 76 | 0 | 4.0 | 6.0 | 0.00 | 0.00 | 0.00 | 37 | 1013.4 |
| 20260504010517 | 77 | 0 | 6.0 | 7.0 | 0.00 | 0.00 | 0.00 | 37 | 1013.4 |
| 20260504005517 | 77 | 0 | 5.0 | 9.0 | 0.00 | 0.00 | 0.00 | 36 | 1013.3 |
| 20260504004517 | 78 | 0 | 4.0 | 7.0 | 0.00 | 0.00 | 0.00 | 36 | 1013.3 |
| 20260504003536 | 78 | 0 | 3.0 | 5.0 | 0.00 | 0.00 | 0.00 | 35 | 1013.3 |
| 20260504002516 | 79 | 0 | 5.0 | 7.0 | 0.00 | 0.00 | 0.00 | 35 | 1013.3 |